Weather History for KVES - October, 2011

Change the Weather History Date:

Wednesday, October 19, 2011

  Actual Average (KDAY) Record (KDAY)
Temperature  
Mean Temperature 46 °F 53 °F  
Max Temperature 50 °F 63 °F 84 °F (1953)
Min Temperature 42 °F 43 °F 23 °F (1992)
Degree Days  
Heating Degree Days 19 12  
Month to date heating degree days 185  
Since 1 July heating degree days 275  
Cooling Degree Days 0 0  
Month to date cooling degree days 10  
Year to date cooling degree days 891  
Moisture  
Dew Point 46 °F    
Average Humidity 98    
Maximum Humidity 100    
Minimum Humidity 93    
Precipitation  
Precipitation 1.03 in 0.09 in 1.92 in (2011)
Month to date precipitation 1.83  
Year to date precipitation 33.44  
Snow  
Snow 0.00 in 0.10 in 4.80 in (1989)
Month to date snowfall 0.1  
Since 1 July snowfall 0.1  
Since 1 September snowfall 0.1  
Snow Depth -    
Sea Level Pressure  
Sea Level Pressure 29.46 in    
Wind  
Wind Speed 10 mph (North)    
Max Wind Speed 15 mph    
Max Gust Speed 22 mph    
Visibility 4 miles    
Events Rain    
T = Trace of Precipitation, MM = Missing Value Source: NWS Daily Summary

Daily Weather History Graph

Daily Weather History Graph

Search for Another Location

Airport or City:

Trip Planner

Search our weather history database for the weather conditions in past years. The results will help you decide how hot, cold, wet, or windy it might be!

Date:

Astronomy

Oct. 19, 2011 Rise Set
Actual Time 7:52 AM EDT 6:52 PM EDT
Civil Twilight 7:25 AM EDT 7:20 PM EDT
Nautical Twilight 6:53 AM EDT 7:51 PM EDT
Astronomical Twilight 6:22 AM EDT 8:23 PM EDT
Moon No Moon Rise 2:23 PM EDT (10/19)
Length of Visible Light 11h 55m
Length of Day
11h 00m
Waning Gibbous, 55% of the Moon is Illuminated
Oct 19
Waning Gibbous
Oct 19
Last Quarter
Oct 26
New
Nov 2
First Quarter
Nov 10
Full

Hourly Weather History & Observations

Time (EDT) Temp. Windchill Dew Point Humidity Pressure Visibility Wind Dir Wind Speed Gust Speed Precip Events Conditions
12:15 AM 42.8 °F 36.6 °F 42.8 °F 100% 29.65 in 10.0 mi NNE 11.5 mph 18.4 mph N/A   Overcast
12:35 AM 42.8 °F 36.6 °F 41.0 °F 93% 29.64 in 10.0 mi NNE 11.5 mph 21.9 mph N/A   Overcast
12:55 AM 42.8 °F 36.6 °F 41.0 °F 93% 29.64 in 10.0 mi NNE 11.5 mph 17.3 mph N/A   Overcast
1:15 AM 44.6 °F 39.2 °F 42.8 °F 93% 29.66 in 7.0 mi NE 10.4 mph - N/A   Overcast
1:35 AM 44.6 °F 39.7 °F 42.8 °F 93% 29.64 in 7.0 mi NNE 9.2 mph - N/A   Overcast
1:55 AM 44.6 °F 38.8 °F 42.8 °F 93% 29.63 in 5.0 mi NNE 11.5 mph 18.4 mph N/A Rain Light Rain
2:15 AM 44.6 °F 38.4 °F 42.8 °F 93% 29.61 in 5.0 mi NE 12.7 mph - N/A   Light Drizzle
2:35 AM 44.6 °F 37.8 °F 42.8 °F 93% 29.60 in 5.0 mi NNE 15.0 mph 20.7 mph N/A   Overcast
2:55 AM 44.6 °F 38.4 °F 42.8 °F 93% 29.59 in 5.0 mi NNE 12.7 mph - N/A   Overcast
3:15 AM 44.6 °F 38.4 °F 42.8 °F 93% 29.58 in 5.0 mi NNE 12.7 mph 17.3 mph N/A   Overcast
3:35 AM 44.6 °F 38.4 °F 44.6 °F 100% 29.57 in 4.0 mi NNE 12.7 mph - N/A   Overcast
3:55 AM 44.6 °F 38.1 °F 44.6 °F 100% 29.56 in 4.0 mi NE 13.8 mph - N/A   Overcast
4:15 AM 44.6 °F 38.1 °F 44.6 °F 100% 29.55 in 3.0 mi NE 13.8 mph - N/A   Light Drizzle
4:35 AM 44.6 °F 38.8 °F 44.6 °F 100% 29.54 in 3.0 mi NNE 11.5 mph - N/A   Overcast
4:55 AM 44.6 °F 39.2 °F 44.6 °F 100% 29.53 in 2.5 mi NNE 10.4 mph - N/A   Overcast
5:15 AM 44.6 °F 39.2 °F 44.6 °F 100% 29.54 in 2.5 mi NNE 10.4 mph - 0.01 in Rain Rain
5:35 AM 44.6 °F 39.7 °F 44.6 °F 100% 29.54 in 1.5 mi North 9.2 mph - 0.03 in Rain Rain
6:15 AM 44.6 °F 40.2 °F 44.6 °F 100% 29.53 in 1.5 mi North 8.1 mph - 0.02 in   Heavy Drizzle
6:35 AM 44.6 °F 40.2 °F 44.6 °F 100% 29.54 in 1.8 mi NNE 8.1 mph - 0.06 in Rain Heavy Rain
6:55 AM 44.6 °F 39.7 °F 44.6 °F 100% 29.53 in 1.8 mi NNE 9.2 mph - 0.17 in Rain Rain
7:15 AM 44.6 °F 40.2 °F 44.6 °F 100% 29.52 in 2.5 mi North 8.1 mph - 0.05 in Rain Rain
7:35 AM 44.6 °F 39.7 °F 44.6 °F 100% 29.52 in 3.0 mi North 9.2 mph - 0.09 in Rain Rain
8:15 AM 44.6 °F 39.2 °F 44.6 °F 100% 29.48 in 3.0 mi NNE 10.4 mph - N/A   Overcast
8:35 AM 44.6 °F 40.2 °F 44.6 °F 100% 29.50 in 3.0 mi North 8.1 mph - N/A   Overcast
8:55 AM 46.4 °F 41.9 °F 44.6 °F 93% 29.50 in 2.0 mi NNE 9.2 mph - 0.01 in Rain Light Rain
9:15 AM 46.4 °F 40.7 °F 44.6 °F 93% 29.49 in 1.5 mi NNE 12.7 mph - 0.04 in Rain Rain
9:35 AM 46.4 °F 41.5 °F 44.6 °F 93% 29.49 in 1.8 mi NNE 10.4 mph - 0.06 in Rain Light Rain
10:15 AM 46.4 °F 41.9 °F 46.4 °F 100% 29.46 in 2.5 mi NNE 9.2 mph - 0.03 in Rain Rain
10:35 AM 46.4 °F 41.5 °F 46.4 °F 100% 29.45 in 4.0 mi NNE 10.4 mph - 0.03 in   Light Drizzle
10:55 AM 46.4 °F 42.9 °F 46.4 °F 100% 29.44 in 3.0 mi NNE 6.9 mph - 0.03 in   Overcast
11:15 AM 46.4 °F 44.3 °F 46.4 °F 100% 29.45 in 3.0 mi NNE 4.6 mph - N/A   Overcast
11:35 AM 48.2 °F - 46.4 °F 93% 29.46 in 4.0 mi North 3.5 mph - N/A   Overcast
11:55 AM 48.2 °F - 48.2 °F 100% 29.43 in 2.5 mi NNE 6.9 mph - N/A   Drizzle
12:15 PM 48.2 °F - 48.2 °F 100% 29.43 in 3.0 mi NNE 5.8 mph - N/A   Overcast
12:55 PM 50.0 °F - 50.0 °F 100% 29.41 in 4.0 mi NNE 4.6 mph - N/A   Overcast
1:15 PM 50.0 °F - 50.0 °F 100% 29.40 in 5.0 mi NE 4.6 mph - N/A   Overcast
1:55 PM 50.0 °F - 50.0 °F 100% 29.39 in 3.0 mi WNW 3.5 mph - 0.03 in Rain Rain
2:15 PM 50.0 °F - 50.0 °F 100% 29.36 in 2.0 mi North 6.9 mph - 0.10 in Rain Rain
2:35 PM 50.0 °F - 50.0 °F 100% 29.35 in 2.0 mi North 9.2 mph - 0.14 in Rain Light Rain
2:55 PM 50.0 °F - 50.0 °F 100% 29.36 in 5.0 mi NNW 6.9 mph - 0.15 in Rain Light Rain
3:15 PM 50.0 °F - 50.0 °F 100% 29.35 in 3.0 mi NNW 6.9 mph - 0.04 in Rain Heavy Rain
3:35 PM 50.0 °F - 50.0 °F 100% 29.36 in 5.0 mi North 6.9 mph - 0.08 in Rain Rain
3:55 PM 50.0 °F - 48.2 °F 94% 29.34 in 5.0 mi NNW 9.2 mph - 0.14 in Rain Rain
4:15 PM 50.0 °F - 48.2 °F 94% 29.34 in 4.0 mi NNW 9.2 mph - 0.05 in Rain Rain
4:35 PM 50.0 °F - 48.2 °F 94% 29.33 in 5.0 mi NNW 8.1 mph - 0.08 in Rain Light Rain
4:55 PM 48.2 °F - 48.2 °F 100% 29.33 in 5.0 mi NNW 10.4 mph - 0.10 in Rain Light Rain
5:15 PM 48.2 °F - 48.2 °F 100% 29.32 in 5.0 mi NNW 10.4 mph 16.1 mph 0.02 in Rain Rain
5:35 PM 48.2 °F - 48.2 °F 100% 29.32 in 7.0 mi North 9.2 mph - 0.04 in Rain Light Rain
5:55 PM 48.2 °F - 48.2 °F 100% 29.31 in 7.0 mi NNW 11.5 mph - 0.06 in Rain Light Rain
6:15 PM 48.2 °F - 48.2 °F 100% 29.32 in 7.0 mi NNW 10.4 mph - 0.02 in Rain Light Rain
6:35 PM 48.2 °F - 46.4 °F 93% 29.32 in 7.0 mi NW 8.1 mph - 0.04 in Rain Light Rain
6:55 PM 48.2 °F - 46.4 °F 93% 29.32 in 7.0 mi North 9.2 mph - 0.06 in Rain Light Rain
7:15 PM 46.4 °F 43.5 °F 46.4 °F 100% 29.32 in 7.0 mi NNW 5.8 mph - 0.01 in Rain Light Rain
7:35 PM 46.4 °F 42.9 °F 46.4 °F 100% 29.32 in 5.0 mi NNW 6.9 mph - 0.05 in Rain Rain
7:55 PM 46.4 °F 42.9 °F 46.4 °F 100% 29.31 in 5.0 mi North 6.9 mph - 0.10 in Rain Rain
8:15 PM 46.4 °F 42.9 °F 46.4 °F 100% 29.30 in 5.0 mi North 6.9 mph - 0.04 in Rain Rain
8:35 PM 46.4 °F 42.4 °F 46.4 °F 100% 29.29 in 5.0 mi North 8.1 mph - 0.09 in Rain Rain
8:55 PM 46.4 °F 41.9 °F 46.4 °F 100% 29.28 in 5.0 mi NNW 9.2 mph - 0.15 in Rain Rain
9:15 PM 46.4 °F 41.9 °F 46.4 °F 100% 29.27 in 5.0 mi NNW 9.2 mph - 0.05 in Rain Rain
9:35 PM 46.4 °F 41.5 °F 46.4 °F 100% 29.26 in 7.0 mi NNW 10.4 mph - 0.07 in Rain Light Rain
10:15 PM 46.4 °F 41.5 °F 46.4 °F 100% 29.24 in 10.0 mi NNW 10.4 mph 18.4 mph N/A Rain Light Rain
10:35 PM 46.4 °F 43.5 °F 46.4 °F 100% 29.25 in 10.0 mi NNW 5.8 mph - N/A   Overcast
10:55 PM 46.4 °F 43.5 °F 46.4 °F 100% 29.25 in 7.0 mi NW 5.8 mph - 0.01 in Rain Rain
11:15 PM 46.4 °F 43.5 °F 46.4 °F 100% 29.24 in 3.0 mi WNW 5.8 mph - 0.02 in Rain Rain
11:35 PM 46.4 °F 42.4 °F 44.6 °F 93% 29.23 in 5.0 mi WNW 8.1 mph - 0.04 in Rain Rain